Wind From: 11-12-2017 12:03 Until: 12-12-2017 06:00 warning for: Wind Level: Orange info button

Power and phone distribution networks may be disrupted for relatively long periods., Roofs and chimneys can be damaged. , Tree branches may break. , Vehicles can be deported. , Traffic may be disrupted, particularly on secondary roads in forest areas. Limit your trips. , Limit your speed in highway driving, especially if you drive a vehicle or hitch sensitive to wind. , Do not go for walks in forests or along the coast., In town, be vigilant against possible falling objects., Do not work on roofs and do not touch any electrical line fallen on the ground., Store or secure sensitive objects to wind or likely to be damaged., Always install power generators outside buildings. 


Meteo18 Weather Cam more information Meteo18 Weather Cam


Thunder radar more information blitzortung!


Rain radar more information rain snow radar


Visit our other weather sites:

Template documentation
and downloads

And another site



Weather Underground History page Text

Daily Summary for April 4, 2016 Units:  Metric    English   Both
« Previous Day
Next Day »
Daily Weekly Monthly Yearly Custom
  High: Low: Average:
Temperature: 17.5 °C 8.1 °C 11 °C
Dew Point: 10.9 °C 7.2 °C 8.7 °C
Humidity: 97 % 59 % 86 %
Wind Speed: 9.7 km/h 0.0 km/h 1.5 km/h
Wind Gust: 14.5 km/h - -
Wind:- - WSW
Pressure: 1008.4 hPa 1003.9 hPa -
Precipitation: 4.6 mm    
Historical Graphs
 
 
Tabular Data for April 4, 2016
Time Temperature Dew Point Pressure Wind Wind Speed Wind Gust Humidity Rainfall Rate (Hourly)
00:02 9.1 °C 8.6 °C 1006.7 hPa SSW 3.2 km/h 9.7 km/h 97 % 0.0 mm
00:07 9.8 °C 9.2 °C 1006.3 hPa SSW 1.6 km/h 9.7 km/h 96 % 0.0 mm
00:12 10.2 °C 9.4 °C 1006.3 hPa Calm   9.7 km/h 95 % 0.0 mm
00:17 10.3 °C 9.2 °C 1006.3 hPa West 1.6 km/h 9.7 km/h 93 % 0.0 mm
00:22 10.5 °C 9.1 °C 1006.7 hPa SW 3.2 km/h 11.3 km/h 91 % 0.0 mm
00:32 10.6 °C 8.7 °C 1006.7 hPa SW 4.8 km/h 11.3 km/h 88 % 0.0 mm
00:37 10.6 °C 8.5 °C 1006.7 hPa SW 1.6 km/h 9.7 km/h 87 % 0.0 mm
00:47 10.3 °C 8.2 °C 1006.7 hPa Calm   9.7 km/h 87 % 0.0 mm
00:52 10.1 °C 8.2 °C 1006.7 hPa Calm   4.8 km/h 88 % 0.0 mm
00:57 10.0 °C 8.1 °C 1006.7 hPa Calm   6.4 km/h 88 % 0.0 mm
01:02 9.9 °C 8.2 °C 1006.7 hPa Calm   6.4 km/h 89 % 0.0 mm
01:12 9.8 °C 8.1 °C 1007.0 hPa SW 1.6 km/h 4.8 km/h 89 % 0.0 mm
01:17 9.8 °C 8.2 °C 1007.0 hPa Calm   4.8 km/h 90 % 0.0 mm
01:22 9.7 °C 8.1 °C 1007.0 hPa SW 1.6 km/h 4.8 km/h 90 % 0.0 mm
01:27 9.7 °C 8.1 °C 1007.0 hPa Calm   4.8 km/h 90 % 0.0 mm
01:37 9.6 °C 8.2 °C 1007.0 hPa SW 1.6 km/h 4.8 km/h 91 % 0.0 mm
01:42 9.5 °C 8.1 °C 1006.7 hPa Calm   4.8 km/h 91 % 0.0 mm
01:47 9.3 °C 7.7 °C 1006.7 hPa Calm   4.8 km/h 90 % 0.0 mm
01:52 9.2 °C 8.0 °C 1006.7 hPa Calm   3.2 km/h 92 % 0.0 mm
01:57 9.0 °C 7.6 °C 1006.7 hPa Calm   3.2 km/h 91 % 0.0 mm
02:02 8.8 °C 7.4 °C 1006.7 hPa Calm   3.2 km/h 91 % 0.0 mm
02:07 8.6 °C 7.4 °C 1007.0 hPa Calm   3.2 km/h 92 % 0.0 mm
02:12 8.4 °C 7.2 °C 1007.0 hPa Calm     92 % 0.0 mm
02:17 8.4 °C 7.3 °C 1007.0 hPa Calm     93 % 0.0 mm
02:22 8.3 °C 7.2 °C 1007.0 hPa Calm     93 % 0.0 mm
02:27 8.3 °C 7.4 °C 1007.0 hPa Calm     94 % 0.0 mm
02:32 8.4 °C 7.5 °C 1007.0 hPa Calm     94 % 0.0 mm
02:37 8.4 °C 7.5 °C 1007.0 hPa Calm     94 % 0.0 mm
02:42 8.4 °C 7.5 °C 1006.7 hPa Calm     94 % 0.0 mm
02:47 8.4 °C 7.5 °C 1007.0 hPa Calm   1.6 km/h 94 % 0.0 mm
02:52 8.3 °C 7.4 °C 1007.0 hPa Calm   1.6 km/h 94 % 0.0 mm
02:57 8.3 °C 7.4 °C 1007.0 hPa Calm   1.6 km/h 94 % 0.0 mm
03:07 8.3 °C 7.5 °C 1007.3 hPa Calm   1.6 km/h 95 % 0.0 mm
03:12 8.3 °C 7.5 °C 1007.3 hPa Calm   1.6 km/h 95 % 0.0 mm
03:17 8.3 °C 7.5 °C 1007.3 hPa Calm   1.6 km/h 95 % 0.0 mm
03:22 8.3 °C 7.5 °C 1007.3 hPa WNW 1.6 km/h   95 % 0.0 mm
03:32 8.6 °C 8.0 °C 1007.7 hPa SW 1.6 km/h 3.2 km/h 96 % 0.0 mm
03:42 8.6 °C 8.0 °C 1007.7 hPa Calm   3.2 km/h 96 % 0.3 mm
03:47 8.6 °C 8.0 °C 1007.7 hPa Calm   3.2 km/h 96 % 0.5 mm
03:52 8.7 °C 8.1 °C 1007.7 hPa WSW 1.6 km/h 3.2 km/h 96 % 0.5 mm
03:57 8.7 °C 8.1 °C 1008.0 hPa SW 3.2 km/h 4.8 km/h 96 % 0.5 mm
04:02 8.8 °C 8.2 °C 1008.4 hPa WSW 4.8 km/h 4.8 km/h 96 % 0.5 mm
04:12 8.8 °C 8.3 °C 1008.0 hPa SSW 1.6 km/h 6.4 km/h 97 % 1.0 mm
04:17 8.9 °C 8.4 °C 1008.0 hPa Calm   6.4 km/h 97 % 1.3 mm
04:22 8.8 °C 8.3 °C 1007.7 hPa SW 1.6 km/h 4.8 km/h 97 % 1.5 mm
04:27 8.8 °C 8.3 °C 1007.7 hPa SSW 1.6 km/h 4.8 km/h 97 % 2.0 mm
04:32 8.8 °C 8.3 °C 1007.7 hPa West 1.6 km/h 3.2 km/h 97 % 2.3 mm
04:37 8.8 °C 8.3 °C 1007.3 hPa Calm   3.2 km/h 97 % 2.3 mm
04:42 8.7 °C 8.3 °C 1007.3 hPa Calm   1.6 km/h 97 % 2.3 mm
04:47 8.7 °C 8.3 °C 1007.3 hPa Calm   1.6 km/h 97 % 2.3 mm
04:52 8.7 °C 8.3 °C 1007.3 hPa Calm   3.2 km/h 97 % 2.3 mm
04:57 8.7 °C 8.3 °C 1007.3 hPa Calm   3.2 km/h 97 % 2.3 mm
05:02 8.7 °C 8.3 °C 1007.7 hPa Calm   1.6 km/h 97 % 2.3 mm
05:07 8.7 °C 8.3 °C 1007.7 hPa Calm   1.6 km/h 97 % 2.0 mm
05:12 8.7 °C 8.3 °C 1007.7 hPa WSW 1.6 km/h 1.6 km/h 97 % 2.0 mm
05:17 8.7 °C 8.3 °C 1007.7 hPa Calm   3.2 km/h 97 % 1.8 mm
05:22 8.7 °C 8.3 °C 1007.3 hPa Calm   3.2 km/h 97 % 1.3 mm
05:27 8.7 °C 8.3 °C 1007.3 hPa West 1.6 km/h 3.2 km/h 97 % 1.0 mm
05:32 8.7 °C 8.3 °C 1007.3 hPa Calm   3.2 km/h 97 % 0.8 mm
05:37 8.7 °C 8.3 °C 1007.3 hPa WNW 4.8 km/h 4.8 km/h 97 % 0.5 mm
05:42 8.7 °C 8.3 °C 1007.3 hPa West 1.6 km/h 6.4 km/h 97 % 0.8 mm
05:47 8.7 °C 8.3 °C 1007.3 hPa Calm   6.4 km/h 97 % 0.8 mm
05:52 8.7 °C 8.3 °C 1007.0 hPa Calm   6.4 km/h 97 % 0.8 mm
05:57 8.7 °C 8.3 °C 1007.3 hPa West 1.6 km/h 6.4 km/h 97 % 0.5 mm
06:02 8.6 °C 8.2 °C 1007.0 hPa Calm   6.4 km/h 97 % 0.5 mm
06:07 8.6 °C 8.2 °C 1007.0 hPa Calm   6.4 km/h 97 % 0.5 mm
06:12 8.6 °C 8.2 °C 1007.3 hPa Calm   1.6 km/h 97 % 0.5 mm
06:17 8.5 °C 8.1 °C 1007.3 hPa Calm   1.6 km/h 97 % 0.5 mm
06:22 8.5 °C 8.1 °C 1007.3 hPa Calm   1.6 km/h 97 % 0.5 mm
06:27 8.4 °C 8.0 °C 1007.3 hPa Calm   1.6 km/h 97 % 0.3 mm
06:32 8.4 °C 8.0 °C 1007.3 hPa Calm   3.2 km/h 97 % 0.3 mm
06:37 8.4 °C 8.0 °C 1007.0 hPa Calm   3.2 km/h 97 % 0.3 mm
06:42 8.4 °C 8.0 °C 1007.0 hPa Calm   3.2 km/h 97 % 0.0 mm
06:52 8.4 °C 8.0 °C 1007.3 hPa Calm   1.6 km/h 97 % 0.0 mm
06:57 8.3 °C 7.9 °C 1007.3 hPa Calm   3.2 km/h 97 % 0.0 mm
07:02 8.3 °C 7.9 °C 1007.3 hPa Calm   3.2 km/h 97 % 0.0 mm
07:07 8.2 °C 7.8 °C 1007.3 hPa West 1.6 km/h 3.2 km/h 97 % 0.0 mm
07:12 8.2 °C 7.8 °C 1007.3 hPa Calm   4.8 km/h 97 % 0.0 mm
07:22 8.1 °C 7.7 °C 1007.3 hPa Calm   4.8 km/h 97 % 0.0 mm
07:27 8.1 °C 7.7 °C 1007.7 hPa SW 3.2 km/h 3.2 km/h 97 % 0.0 mm
07:32 8.1 °C 7.7 °C 1007.7 hPa Calm   6.4 km/h 97 % 0.0 mm
07:37 8.1 °C 7.7 °C 1007.7 hPa Calm   6.4 km/h 97 % 0.0 mm
07:42 8.2 °C 7.8 °C 1007.7 hPa Calm   6.4 km/h 97 % 0.0 mm
07:47 8.2 °C 7.8 °C 1007.7 hPa SW 1.6 km/h 1.6 km/h 97 % 0.0 mm
07:52 8.2 °C 7.8 °C 1007.7 hPa West 1.6 km/h 1.6 km/h 97 % 0.0 mm
07:57 8.2 °C 7.8 °C 1007.7 hPa Calm   3.2 km/h 97 % 0.0 mm
08:07 8.2 °C 7.8 °C 1007.7 hPa Calm   4.8 km/h 97 % 0.0 mm
08:12 8.2 °C 7.8 °C 1007.7 hPa Calm   4.8 km/h 97 % 0.0 mm
08:17 8.2 °C 7.8 °C 1008.0 hPa Calm   1.6 km/h 97 % 0.0 mm
08:22 8.3 °C 7.9 °C 1008.0 hPa West 1.6 km/h 4.8 km/h 97 % 0.0 mm
08:27 8.3 °C 7.9 °C 1008.0 hPa Calm   4.8 km/h 97 % 0.0 mm
08:32 8.3 °C 7.9 °C 1008.0 hPa WSW 1.6 km/h 3.2 km/h 97 % 0.0 mm
08:37 8.3 °C 7.7 °C 1008.0 hPa SW 3.2 km/h 3.2 km/h 96 % 0.0 mm
08:42 8.3 °C 7.7 °C 1008.4 hPa SW 1.6 km/h 3.2 km/h 96 % 0.0 mm
08:47 8.4 °C 7.8 °C 1008.0 hPa Calm   3.2 km/h 96 % 0.0 mm
08:52 8.4 °C 7.8 °C 1008.0 hPa Calm   3.2 km/h 96 % 0.0 mm
08:57 8.5 °C 7.9 °C 1008.4 hPa SW 1.6 km/h 3.2 km/h 96 % 0.0 mm
09:02 8.7 °C 8.1 °C 1008.0 hPa WSW 3.2 km/h 3.2 km/h 96 % 0.0 mm
09:07 8.8 °C 8.2 °C 1008.0 hPa Calm   4.8 km/h 96 % 0.0 mm
09:12 8.8 °C 8.2 °C 1008.0 hPa Calm   4.8 km/h 96 % 0.0 mm
09:17 9.0 °C 8.4 °C 1008.0 hPa Calm   4.8 km/h 96 % 0.0 mm
09:22 9.2 °C 8.4 °C 1008.0 hPa Calm   1.6 km/h 95 % 0.0 mm
09:27 9.4 °C 8.6 °C 1008.0 hPa WSW 1.6 km/h 1.6 km/h 95 % 0.0 mm
09:32 9.7 °C 8.8 °C 1008.0 hPa Calm   3.2 km/h 94 % 0.0 mm
09:37 10.2 °C 9.1 °C 1008.0 hPa Calm   3.2 km/h 93 % 0.0 mm
09:42 10.7 °C 9.3 °C 1008.0 hPa NW 1.6 km/h 4.8 km/h 91 % 0.0 mm
09:47 11.2 °C 9.6 °C 1008.0 hPa Calm   4.8 km/h 90 % 0.0 mm
09:52 11.9 °C 10.1 °C 1008.0 hPa SSE 3.2 km/h 4.8 km/h 89 % 0.0 mm
09:57 12.2 °C 9.9 °C 1008.0 hPa WSW 1.6 km/h 6.4 km/h 86 % 0.0 mm
10:02 12.2 °C 9.6 °C 1008.0 hPa West 1.6 km/h 6.4 km/h 84 % 0.0 mm
10:07 12.3 °C 9.7 °C 1008.0 hPa WSW 3.2 km/h 8.0 km/h 84 % 0.0 mm
10:12 12.4 °C 9.8 °C 1007.7 hPa WSW 4.8 km/h 8.0 km/h 84 % 0.0 mm
10:17 12.2 °C 8.9 °C 1007.7 hPa West 3.2 km/h 8.0 km/h 80 % 0.0 mm
10:22 12.0 °C 9.0 °C 1007.7 hPa SW 4.8 km/h 11.3 km/h 82 % 0.0 mm
10:27 12.2 °C 9.6 °C 1007.7 hPa WSW 1.6 km/h 11.3 km/h 84 % 0.0 mm
10:32 12.4 °C 9.2 °C 1007.3 hPa West 3.2 km/h 11.3 km/h 81 % 0.0 mm
10:37 12.5 °C 9.7 °C 1007.3 hPa Calm   8.0 km/h 83 % 0.0 mm
10:42 12.9 °C 9.9 °C 1007.3 hPa SW 1.6 km/h 8.0 km/h 82 % 0.0 mm
10:47 13.1 °C 9.4 °C 1007.3 hPa WSW 3.2 km/h 8.0 km/h 78 % 0.0 mm
10:52 13.1 °C 9.5 °C 1007.7 hPa SW 4.8 km/h 9.7 km/h 79 % 0.0 mm
10:57 13.1 °C 9.5 °C 1007.3 hPa ESE 1.6 km/h 9.7 km/h 79 % 0.0 mm
11:02 13.1 °C 9.7 °C 1007.7 hPa SW 4.8 km/h 9.7 km/h 80 % 0.0 mm
11:07 13.2 °C 9.6 °C 1007.3 hPa SSW 8.0 km/h 9.7 km/h 79 % 0.0 mm
11:12 13.1 °C 9.9 °C 1007.7 hPa WSW 1.6 km/h 11.3 km/h 81 % 0.0 mm
11:17 13.7 °C 9.9 °C 1007.7 hPa West 6.4 km/h 11.3 km/h 78 % 0.0 mm
11:22 13.6 °C 9.6 °C 1007.7 hPa Calm   11.3 km/h 77 % 0.0 mm
11:27 13.6 °C 9.4 °C 1007.3 hPa SW 9.7 km/h 11.3 km/h 76 % 0.0 mm
11:32 13.3 °C 9.7 °C 1007.7 hPa SW 3.2 km/h 11.3 km/h 79 % 0.0 mm
11:37 14.1 °C 10.3 °C 1007.3 hPa SSW 9.7 km/h 9.7 km/h 78 % 0.0 mm
11:42 14.1 °C 9.7 °C 1007.3 hPa SW 6.4 km/h 12.9 km/h 75 % 0.0 mm
11:47 14.3 °C 10.5 °C 1007.3 hPa WSW 8.0 km/h 12.9 km/h 78 % 0.0 mm
11:52 14.4 °C 9.8 °C 1007.3 hPa SSE 1.6 km/h 12.9 km/h 74 % 0.0 mm
11:57 14.6 °C 10.4 °C 1007.3 hPa SW 8.0 km/h 11.3 km/h 76 % 0.0 mm
12:02 14.8 °C 10.6 °C 1007.3 hPa WSW 6.4 km/h 9.7 km/h 76 % 0.0 mm
12:07 14.8 °C 10.2 °C 1007.3 hPa West 8.0 km/h 9.7 km/h 74 % 0.0 mm
12:12 14.7 °C 10.1 °C 1007.3 hPa South 1.6 km/h 11.3 km/h 74 % 0.0 mm
12:17 14.7 °C 9.7 °C 1007.0 hPa WSW 4.8 km/h 11.3 km/h 72 % 0.0 mm
12:22 14.6 °C 10.0 °C 1007.0 hPa SW 6.4 km/h 11.3 km/h 74 % 0.0 mm
12:27 14.3 °C 9.5 °C 1007.0 hPa SE 4.8 km/h 11.3 km/h 73 % 0.0 mm
12:32 14.7 °C 9.5 °C 1007.0 hPa SW 6.4 km/h 8.0 km/h 71 % 0.0 mm
12:37 14.4 °C 9.8 °C 1007.0 hPa SW 3.2 km/h 9.7 km/h 74 % 0.0 mm
12:42 14.9 °C 10.1 °C 1006.7 hPa SW 4.8 km/h 9.7 km/h 73 % 0.0 mm
12:47 15.1 °C 9.5 °C 1006.7 hPa WSW 1.6 km/h 9.7 km/h 69 % 0.0 mm
12:52 15.5 °C 10.9 °C 1006.7 hPa SW 6.4 km/h 9.7 km/h 74 % 0.0 mm
12:57 15.2 °C 9.8 °C 1006.7 hPa SW 6.4 km/h 12.9 km/h 70 % 0.0 mm
13:02 15.7 °C 10.2 °C 1006.7 hPa SSW 1.6 km/h 12.9 km/h 70 % 0.0 mm
13:07 16.2 °C 9.6 °C 1006.7 hPa Calm   12.9 km/h 65 % 0.0 mm
13:12 16.3 °C 9.7 °C 1006.7 hPa WSW 3.2 km/h 12.9 km/h 65 % 0.0 mm
13:17 16.4 °C 10.7 °C 1006.7 hPa WSW 3.2 km/h 12.9 km/h 69 % 0.0 mm
13:22 16.4 °C 10.0 °C 1006.7 hPa Calm   8.0 km/h 66 % 0.0 mm
13:27 16.7 °C 10.3 °C 1006.3 hPa WSW 4.8 km/h 8.0 km/h 66 % 0.0 mm
13:32 16.5 °C 10.8 °C 1006.3 hPa West 1.6 km/h 11.3 km/h 69 % 0.0 mm
13:37 16.9 °C 10.3 °C 1006.3 hPa West 4.8 km/h 11.3 km/h 65 % 0.0 mm
13:42 17.1 °C 9.5 °C 1006.3 hPa West 3.2 km/h 11.3 km/h 61 % 0.0 mm
13:47 16.3 °C 9.2 °C 1006.3 hPa Calm   12.9 km/h 63 % 0.0 mm
13:52 16.6 °C 10.2 °C 1006.0 hPa West 1.6 km/h 12.9 km/h 66 % 0.0 mm
13:57 17.1 °C 10.7 °C 1006.0 hPa SW 4.8 km/h 9.7 km/h 66 % 0.0 mm
14:02 17.4 °C 10.0 °C 1006.0 hPa SW 4.8 km/h 8.0 km/h 62 % 0.0 mm
14:07 17.5 °C 9.4 °C 1006.0 hPa West 1.6 km/h 9.7 km/h 59 % 0.0 mm
14:12 17.1 °C 10.2 °C 1005.6 hPa West 4.8 km/h 11.3 km/h 64 % 0.0 mm
14:17 16.9 °C 9.8 °C 1005.6 hPa NNW 4.8 km/h 11.3 km/h 63 % 0.0 mm
14:22 16.5 °C 9.9 °C 1005.6 hPa NNW 9.7 km/h 11.3 km/h 65 % 0.0 mm
14:27 15.8 °C 9.9 °C 1005.6 hPa North 6.4 km/h 12.9 km/h 68 % 0.0 mm
14:32 15.4 °C 9.5 °C 1005.6 hPa Calm   14.5 km/h 68 % 0.0 mm
14:37 15.7 °C 10.9 °C 1005.6 hPa West 1.6 km/h 14.5 km/h 73 % 0.0 mm
14:42 16.3 °C 10.4 °C 1005.6 hPa West 3.2 km/h 14.5 km/h 68 % 0.0 mm
14:47 16.8 °C 10.4 °C 1005.6 hPa NNW 6.4 km/h 8.0 km/h 66 % 0.0 mm
14:52 16.6 °C 9.3 °C 1005.6 hPa NW 1.6 km/h 9.7 km/h 62 % 0.0 mm
14:57 15.8 °C 9.0 °C 1005.3 hPa NNW 3.2 km/h 9.7 km/h 64 % 0.0 mm
15:07 15.2 °C 8.9 °C 1005.3 hPa NW 1.6 km/h 9.7 km/h 66 % 0.0 mm
15:12 14.9 °C 9.0 °C 1005.3 hPa NNW 1.6 km/h 9.7 km/h 68 % 0.0 mm
15:17 14.8 °C 8.7 °C 1005.3 hPa Calm   8.0 km/h 67 % 0.0 mm
15:22 14.7 °C 9.1 °C 1005.3 hPa NW 3.2 km/h 6.4 km/h 69 % 0.0 mm
15:27 14.4 °C 8.6 °C 1005.3 hPa Calm   6.4 km/h 68 % 0.0 mm
15:32 14.2 °C 8.8 °C 1005.3 hPa NW 1.6 km/h 8.0 km/h 70 % 0.0 mm
15:37 13.9 °C 8.1 °C 1005.3 hPa NNW 1.6 km/h 8.0 km/h 68 % 0.0 mm
15:42 13.7 °C 8.3 °C 1005.3 hPa NW 3.2 km/h 11.3 km/h 70 % 0.0 mm
15:47 13.5 °C 8.1 °C 1005.3 hPa SW 3.2 km/h 11.3 km/h 70 % 0.0 mm
15:52 13.4 °C 8.2 °C 1005.0 hPa West 3.2 km/h 11.3 km/h 71 % 0.0 mm
15:57 13.3 °C 8.2 °C 1005.0 hPa WNW 4.8 km/h 9.7 km/h 71 % 0.0 mm
16:02 13.1 °C 8.4 °C 1005.0 hPa Calm   11.3 km/h 73 % 0.0 mm
16:07 13.1 °C 8.4 °C 1005.0 hPa East 1.6 km/h 11.3 km/h 73 % 0.0 mm
16:12 13.1 °C 8.2 °C 1005.0 hPa WNW 3.2 km/h 9.7 km/h 72 % 0.0 mm
16:17 13.1 °C 8.8 °C 1005.0 hPa Calm   8.0 km/h 75 % 0.0 mm
16:22 13.1 °C 8.4 °C 1005.0 hPa NW 1.6 km/h 6.4 km/h 73 % 0.0 mm
16:27 13.0 °C 8.7 °C 1005.0 hPa NNW 3.2 km/h 6.4 km/h 75 % 0.0 mm
16:32 12.9 °C 8.4 °C 1004.6 hPa North 1.6 km/h 6.4 km/h 74 % 0.0 mm
16:37 12.8 °C 7.9 °C 1004.6 hPa SW 4.8 km/h 6.4 km/h 72 % 0.0 mm
16:42 12.8 °C 8.3 °C 1004.6 hPa Calm   8.0 km/h 74 % 0.0 mm
16:47 12.8 °C 8.3 °C 1004.6 hPa Calm   8.0 km/h 74 % 0.0 mm
16:52 13.0 °C 9.1 °C 1004.6 hPa Calm   8.0 km/h 77 % 0.0 mm
17:02 13.2 °C 8.9 °C 1004.6 hPa WSW 1.6 km/h 1.6 km/h 75 % 0.0 mm
17:12 13.4 °C 9.1 °C 1004.3 hPa WSW 1.6 km/h 4.8 km/h 75 % 0.0 mm
17:17 13.4 °C 9.1 °C 1004.3 hPa Calm   4.8 km/h 75 % 0.0 mm
17:22 13.3 °C 9.0 °C 1004.3 hPa Calm   4.8 km/h 75 % 0.0 mm
17:27 13.2 °C 9.1 °C 1004.3 hPa Calm   4.8 km/h 76 % 0.0 mm
17:32 13.1 °C 9.2 °C 1004.3 hPa Calm   4.8 km/h 77 % 0.0 mm
17:37 13.0 °C 9.1 °C 1004.3 hPa Calm   4.8 km/h 77 % 0.0 mm
17:42 12.9 °C 9.2 °C 1004.3 hPa NNW 3.2 km/h 4.8 km/h 78 % 0.0 mm
17:47 12.7 °C 8.6 °C 1004.3 hPa NW 1.6 km/h 4.8 km/h 76 % 0.0 mm
17:52 12.6 °C 8.7 °C 1004.3 hPa West 3.2 km/h 6.4 km/h 77 % 0.0 mm
17:57 12.5 °C 8.8 °C 1004.3 hPa Calm   6.4 km/h 78 % 0.0 mm
18:02 12.4 °C 8.9 °C 1004.3 hPa Calm   6.4 km/h 79 % 0.0 mm
18:07 12.3 °C 9.1 °C 1004.3 hPa Calm   6.4 km/h 81 % 0.0 mm
18:12 12.2 °C 8.5 °C 1004.3 hPa WSW 1.6 km/h 8.0 km/h 78 % 0.0 mm
18:17 12.1 °C 8.9 °C 1004.3 hPa NNW 9.7 km/h 11.3 km/h 81 % 0.0 mm
18:22 11.9 °C 8.7 °C 1004.3 hPa Calm   11.3 km/h 81 % 0.0 mm
18:27 11.8 °C 8.8 °C 1004.3 hPa Calm   9.7 km/h 82 % 0.0 mm
18:32 11.7 °C 9.1 °C 1004.6 hPa Calm   9.7 km/h 84 % 0.0 mm
18:42 11.4 °C 9.0 °C 1004.6 hPa Calm   3.2 km/h 85 % 0.0 mm
18:57 11.1 °C 9.0 °C 1004.6 hPa Calm   3.2 km/h 87 % 0.0 mm
19:02 10.9 °C 8.8 °C 1004.6 hPa Calm   3.2 km/h 87 % 0.3 mm
19:12 10.6 °C 9.0 °C 1004.3 hPa Calm   3.2 km/h 90 % 0.5 mm
19:17 10.4 °C 9.0 °C 1004.3 hPa Calm   3.2 km/h 91 % 0.5 mm
19:32 10.3 °C 9.1 °C 1003.9 hPa NNW 1.6 km/h 4.8 km/h 92 % 0.5 mm
19:37 10.2 °C 9.0 °C 1004.3 hPa Calm   4.8 km/h 92 % 0.5 mm
19:42 10.2 °C 9.0 °C 1003.9 hPa Calm   4.8 km/h 92 % 0.5 mm
19:47 10.1 °C 8.9 °C 1003.9 hPa Calm   6.4 km/h 92 % 0.5 mm
19:52 10.1 °C 9.0 °C 1003.9 hPa Calm   6.4 km/h 93 % 0.5 mm
19:57 10.0 °C 8.9 °C 1003.9 hPa Calm   6.4 km/h 93 % 0.5 mm
20:02 9.9 °C 8.8 °C 1003.9 hPa NNW 4.8 km/h 4.8 km/h 93 % 0.5 mm
20:07 9.9 °C 8.8 °C 1003.9 hPa WNW 1.6 km/h 11.3 km/h 93 % 0.3 mm
20:12 9.9 °C 9.0 °C 1004.3 hPa SE 1.6 km/h 11.3 km/h 94 % 0.3 mm
20:17 9.9 °C 8.8 °C 1004.3 hPa NNW 1.6 km/h 11.3 km/h 93 % 0.3 mm
20:22 9.8 °C 8.7 °C 1003.9 hPa SE 1.6 km/h 8.0 km/h 93 % 0.0 mm
20:27 9.8 °C 8.7 °C 1003.9 hPa Calm   8.0 km/h 93 % 0.0 mm
20:32 9.7 °C 8.5 °C 1004.3 hPa Calm   8.0 km/h 92 % 0.0 mm
20:37 9.7 °C 8.5 °C 1004.3 hPa Calm   8.0 km/h 92 % 0.0 mm
20:42 9.7 °C 8.6 °C 1004.3 hPa Calm   4.8 km/h 93 % 0.0 mm
20:47 9.6 °C 8.5 °C 1004.3 hPa Calm   4.8 km/h 93 % 0.0 mm
20:52 9.6 °C 8.5 °C 1004.3 hPa Calm   1.6 km/h 93 % 0.0 mm
20:57 9.6 °C 8.5 °C 1004.3 hPa Calm   1.6 km/h 93 % 0.0 mm
21:02 9.6 °C 8.5 °C 1004.3 hPa Calm   1.6 km/h 93 % 0.0 mm
21:12 9.5 °C 8.6 °C 1004.6 hPa Calm     94 % 0.0 mm
21:17 9.4 °C 8.5 °C 1004.6 hPa Calm     94 % 0.0 mm
21:22 9.4 °C 8.5 °C 1004.6 hPa Calm     94 % 0.0 mm
21:32 9.3 °C 8.4 °C 1004.6 hPa Calm   1.6 km/h 94 % 0.0 mm
21:37 9.3 °C 8.4 °C 1004.6 hPa Calm   1.6 km/h 94 % 0.0 mm
21:42 9.3 °C 8.4 °C 1004.6 hPa Calm   1.6 km/h 94 % 0.0 mm
21:47 9.3 °C 8.4 °C 1004.6 hPa Calm     94 % 0.0 mm
21:52 9.2 °C 8.3 °C 1004.6 hPa Calm     94 % 0.0 mm
22:02 9.2 °C 8.3 °C 1004.6 hPa Calm     94 % 0.0 mm
22:07 9.2 °C 8.3 °C 1004.6 hPa Calm     94 % 0.0 mm
22:12 9.2 °C 8.3 °C 1004.6 hPa Calm     94 % 0.0 mm
22:17 9.2 °C 8.3 °C 1004.6 hPa Calm     94 % 0.0 mm
22:27 9.2 °C 8.4 °C 1004.6 hPa Calm     95 % 0.0 mm
22:32 9.2 °C 8.4 °C 1004.6 hPa Calm     95 % 0.3 mm
22:37 9.2 °C 8.4 °C 1004.6 hPa Calm     95 % 0.3 mm
22:42 9.2 °C 8.4 °C 1004.6 hPa Calm     95 % 0.3 mm
22:47 9.2 °C 8.4 °C 1004.6 hPa Calm     95 % 0.3 mm
22:52 9.2 °C 8.4 °C 1004.6 hPa Calm     95 % 0.3 mm
22:57 9.2 °C 8.4 °C 1004.6 hPa Calm     95 % 0.3 mm
23:02 9.2 °C 8.4 °C 1004.6 hPa Calm     95 % 0.3 mm
23:07 9.2 °C 8.6 °C 1004.6 hPa Calm     96 % 0.3 mm
23:12 9.2 °C 8.6 °C 1004.6 hPa Calm     96 % 0.3 mm
23:17 9.2 °C 8.6 °C 1004.6 hPa Calm     96 % 0.5 mm
23:22 9.2 °C 8.6 °C 1004.6 hPa Calm     96 % 0.5 mm
23:27 9.2 °C 8.6 °C 1004.6 hPa Calm     96 % 0.5 mm
23:32 9.2 °C 8.6 °C 1004.6 hPa Calm     96 % 0.3 mm
23:37 9.2 °C 8.6 °C 1004.6 hPa Calm     96 % 0.3 mm
23:42 9.2 °C 8.6 °C 1004.3 hPa Calm   1.6 km/h 96 % 0.3 mm
23:47 9.2 °C 8.6 °C 1004.3 hPa Calm   1.6 km/h 96 % 0.3 mm
23:52 9.1 °C 8.5 °C 1004.3 hPa Calm   1.6 km/h 96 % 0.3 mm
23:57 9.1 °C 8.5 °C 1004.3 hPa Calm     96 % 0.5 mm
Meteo18
Compliments of Weather Underground - 4 mb

Script developed by  Jim McMurry - jmcmurry@mwt.net Adapted for the template by  Wim van der Kuil - Leuven-Template.eu

You find our weather info also at:

European Weather Network

Weather Underground

Equipment we use:

Weather-station
Davis Vue

Weather-program
Meteohub

Weather-server
Raspberry PI 2 B+

Provider
1 and 1

Davis Vue

Meteohub

Raspberry PI 2 B+

1 and 1